M I D A S
Marine Information and Data Acquisition System
Tripno 382 of the Zeeleeuw from 2002-08-01 07:53:26 to 2002-08-01 14:23:53
Back to CruiseResearch ActivitiesStationsMapUnderway DataData graphs

EquipmentUnitsComment
TimeDGPSUTC
LatitudeDGPSDM.mWGS84
LongitudeDGPSDM.mWGS84
TemperatureSBE03/SBE38deg celciusITS90
ConductivitySBE21S/mITS90
SalinitySBE21 Practical Salinity Units
ChlorophylAChelsea fluorimeterg/lCalibrated in Aceton
Missing or incorrect values are displayed as -999
Sea surface data collected by the RV Zeeleeuw from 2002-08-01 07:53:26 to 2002-08-01 14:23:53
Time Latitude Longitude Temperature Conductivity Salinity ChlorophylA
2002-08-01 07:54:29 51°13.668 2°55.929 -999 -999 -999  
2002-08-01 07:55:29 51°13.675 2°55.863 -999 -999 -999  
2002-08-01 07:56:29 51°13.68 2°55.787 -999 -999 -999  
2002-08-01 07:57:28 51°13.679 2°55.739 -999 -999 -999  
2002-08-01 07:58:28 51°13.689 2°55.738 -999 -999 -999  
2002-08-01 07:59:28 51°13.737 2°55.712 -999 -999 -999  
2002-08-01 08:00:28 51°13.83 2°55.633 -999 -999 -999  
2002-08-01 08:01:28 51°13.947 2°55.546 -999 -999 -999  
2002-08-01 08:02:28 51°14.07 2°55.454 -999 -999 -999  
2002-08-01 08:03:28 51°14.192 2°55.352 -999 -999 -999  
2002-08-01 08:04:28 51°14.293 2°55.201 -999 -999 -999  
2002-08-01 08:05:28 51°14.395 2°55.002 -999 -999 -999  
2002-08-01 08:06:28 51°14.526 2°54.825 -999 -999 -999  
2002-08-01 08:07:28 51°14.665 2°54.669 -999 -999 -999  
2002-08-01 08:08:28 51°14.79 2°54.551 -999 -999 -999  
2002-08-01 08:09:28 51°14.941 2°54.501 -999 -999 -999  
2002-08-01 08:10:28 51°15.143 2°54.585 -999 -999 -999  
2002-08-01 08:11:28 51°15.322 2°54.81 -999 -999 -999  
2002-08-01 08:12:28 51°15.494 2°55.061 -999 -999 -999  
2002-08-01 08:13:29 51°15.651 2°55.344 -999 -999 -999  
2002-08-01 08:14:29 51°15.8 2°55.63 -999 -999 -999  
2002-08-01 08:15:29 51°15.947 2°55.92 -999 -999 -999  
2002-08-01 08:16:29 51°16.085 2°56.222 -999 -999 -999  
2002-08-01 08:17:29 51°16.213 2°56.531 -999 -999 -999  
2002-08-01 08:18:29 51°16.334 2°56.845 -999 -999 -999  
2002-08-01 08:19:29 51°16.456 2°57.157 -999 -999 -999  
2002-08-01 08:20:29 51°16.579 2°57.468 -999 -999 -999  
2002-08-01 08:21:29 51°16.706 2°57.779 -999 -999 -999  
2002-08-01 08:22:29 51°16.83 2°58.093 -999 -999 -999  
2002-08-01 08:23:29 51°16.954 2°58.405 -999 -999 -999  
2002-08-01 08:24:29 51°17.08 2°58.718 -999 -999 -999  
2002-08-01 08:25:29 51°17.203 2°59.032 -999 -999 -999  
2002-08-01 08:26:29 51°17.33 2°59.343 -999 -999 -999  
2002-08-01 08:27:29 51°17.454 2°59.656 -999 -999 -999  
2002-08-01 08:28:29 51°17.578 2°59.968 -999 -999 -999  
2002-08-01 08:29:29 51°17.7 3°0.282 -999 -999 -999  
2002-08-01 08:30:29 51°17.824 3°0.593 -999 -999 -999  
2002-08-01 08:31:29 51°17.949 3°0.898 -999 -999 -999  
2002-08-01 08:32:29 51°18.073 3°1.203 -999 -999 -999  
2002-08-01 08:33:29 51°18.196 3°1.507 -999 -999 -999  
2002-08-01 08:34:29 51°18.32 3°1.806 -999 -999 -999  
2002-08-01 08:35:29 51°18.439 3°2.112 -999 -999 -999  
2002-08-01 08:36:29 51°18.557 3°2.417 -999 -999 -999  
2002-08-01 08:37:29 51°18.677 3°2.718 -999 -999 -999  
2002-08-01 08:38:29 51°18.804 3°3.008 -999 -999 -999  
2002-08-01 08:39:29 51°18.939 3°3.291 -999 -999 -999  
2002-08-01 08:40:29 51°19.071 3°3.576 -999 -999 -999  
2002-08-01 08:41:29 51°19.197 3°3.864 -999 -999 -999  
2002-08-01 08:42:29 51°19.322 3°4.157 -999 -999 -999  
2002-08-01 08:43:29 51°19.463 3°4.425 -999 -999 -999  
2002-08-01 08:44:29 51°19.597 3°4.702 -999 -999 -999  
2002-08-01 08:45:29 51°19.738 3°4.971 -999 -999 -999  
2002-08-01 08:46:29 51°19.88 3°5.237 -999 -999 -999  
2002-08-01 08:47:29 51°20.012 3°5.514 -999 -999 -999  
2002-08-01 08:48:29 51°20.155 3°5.774 -999 -999 -999  
2002-08-01 08:49:29 51°20.287 3°6.047 -999 -999 -999  
2002-08-01 08:50:29 51°20.423 3°6.314 -999 -999 -999  
2002-08-01 08:51:29 51°20.57 3°6.559 -999 -999 -999  
2002-08-01 08:52:29 51°20.721 3°6.801 -999 -999 -999  
2002-08-01 08:53:29 51°20.896 3°6.996 -999 -999 -999  
2002-08-01 08:54:29 51°21.074 3°7.197 -999 -999 -999  
2002-08-01 08:55:29 51°21.241 3°7.426 -999 -999 -999  
2002-08-01 08:56:29 51°21.414 3°7.658 -999 -999 -999  
2002-08-01 08:57:29 51°21.588 3°7.891 -999 -999 -999  
2002-08-01 08:58:29 51°21.76 3°8.128 -999 -999 -999  
2002-08-01 08:59:29 51°21.932 3°8.366 -999 -999 -999  
2002-08-01 09:00:29 51°22.103 3°8.605 -999 -999 -999  
2002-08-01 09:01:29 51°22.276 3°8.842 -999 -999 -999  
2002-08-01 09:02:29 51°22.451 3°9.079 -999 -999 -999  
2002-08-01 09:03:29 51°22.558 3°9.26 -999 -999 -999  
2002-08-01 09:04:29 51°22.626 3°9.386 -999 -999 -999  
2002-08-01 09:05:29 51°22.675 3°9.467 -999 -999 -999  
2002-08-01 09:06:29 51°22.694 3°9.478 -999 -999 -999  
2002-08-01 09:07:29 51°22.697 3°9.469 -999 -999 -999  
2002-08-01 09:08:29 51°22.7 3°9.459 -999 -999 -999  
2002-08-01 09:09:29 51°22.705 3°9.452 -999 -999 -999  
2002-08-01 09:10:29 51°22.719 3°9.45 -999 -999 -999  
2002-08-01 09:11:29 51°22.735 3°9.452 -999 -999 -999  
2002-08-01 09:12:29 51°22.747 3°9.459 -999 -999 -999  
2002-08-01 09:13:29 51°22.755 3°9.471 -999 -999 -999  
2002-08-01 09:14:29 51°22.758 3°9.485 -999 -999 -999  
2002-08-01 09:15:29 51°22.755 3°9.498 -999 -999 -999  
2002-08-01 09:16:29 51°22.747 3°9.508 -999 -999 -999  
2002-08-01 09:17:29 51°22.734 3°9.511 -999 -999 -999  
2002-08-01 09:18:29 51°22.72 3°9.506 -999 -999 -999  
2002-08-01 09:19:29 51°22.705 3°9.494 -999 -999 -999  
2002-08-01 09:20:29 51°22.698 3°9.477 -999 -999 -999  
2002-08-01 09:21:29 51°22.699 3°9.463 -999 -999 -999  
2002-08-01 09:22:29 51°22.699 3°9.448 -999 -999 -999  
2002-08-01 09:23:29 51°22.7 3°9.434 -999 -999 -999  
2002-08-01 09:24:29 51°22.701 3°9.42 -999 -999 -999  
2002-08-01 09:25:29 51°22.702 3°9.403 -999 -999 -999  
2002-08-01 09:26:29 51°22.703 3°9.386 -999 -999 -999  
2002-08-01 09:27:29 51°22.702 3°9.369 -999 -999 -999  
2002-08-01 09:28:29 51°22.698 3°9.353 -999 -999 -999  
2002-08-01 09:29:28 51°22.687 3°9.334 -999 -999 -999  
2002-08-01 09:30:29 51°22.671 3°9.308 -999 -999 -999  
2002-08-01 09:31:29 51°22.655 3°9.272 -999 -999 -999  
2002-08-01 09:32:29 51°22.642 3°9.229 -999 -999 -999  
2002-08-01 09:33:29 51°22.631 3°9.181 -999 -999 -999  
2002-08-01 09:34:29 51°22.625 3°9.133 -999 -999 -999  
2002-08-01 09:35:29 51°22.623 3°9.084 -999 -999 -999  
2002-08-01 09:36:29 51°22.626 3°9.036 -999 -999 -999  
2002-08-01 09:37:29 51°22.633 3°8.992 -999 -999 -999  
2002-08-01 09:38:29 51°22.643 3°8.957 -999 -999 -999  
2002-08-01 09:39:29 51°22.654 3°8.934 -999 -999 -999  
2002-08-01 09:40:29 51°22.665 3°8.92 -999 -999 -999  
2002-08-01 09:41:29 51°22.675 3°8.915 -999 -999 -999  
2002-08-01 09:42:29 51°22.68 3°8.917 -999 -999 -999  
2002-08-01 09:43:29 51°22.679 3°8.932 -999 -999 -999  
2002-08-01 09:44:29 51°22.673 3°8.962 -999 -999 -999  
2002-08-01 09:45:29 51°22.657 3°8.997 -999 -999 -999  
2002-08-01 09:46:29 51°22.633 3°9.026 -999 -999 -999  
2002-08-01 09:47:29 51°22.602 3°9.033 -999 -999 -999  
2002-08-01 09:48:29 51°22.572 3°9.018 -999 -999 -999  
2002-08-01 09:49:29 51°22.543 3°8.989 -999 -999 -999  
2002-08-01 09:50:29 51°22.511 3°8.941 -999 -999 -999  
2002-08-01 09:51:29 51°22.485 3°8.833 -999 -999 -999  
2002-08-01 09:52:29 51°22.518 3°8.706 -999 -999 -999  
2002-08-01 09:53:29 51°22.63 3°8.53 -999 -999 -999  
2002-08-01 09:54:29 51°22.816 3°8.348 -999 -999 -999  
2002-08-01 09:55:29 51°23.038 3°8.22 -999 -999 -999  
2002-08-01 09:56:29 51°23.269 3°8.157 -999 -999 -999  
2002-08-01 09:57:29 51°23.504 3°8.109 -999 -999 -999  
2002-08-01 09:58:29 51°23.741 3°8.064 -999 -999 -999  
2002-08-01 09:59:29 51°23.976 3°8.014 -999 -999 -999  
2002-08-01 10:00:29 51°24.211 3°7.961 -999 -999 -999  
2002-08-01 10:01:29 51°24.442 3°7.907 -999 -999 -999  
2002-08-01 10:02:29 51°24.655 3°7.856 -999 -999 -999  
2002-08-01 10:03:29 51°24.862 3°7.819 -999 -999 -999  
2002-08-01 10:04:29 51°25.063 3°7.81 -999 -999 -999  
2002-08-01 10:05:29 51°25.262 3°7.843 -999 -999 -999  
2002-08-01 10:06:29 51°25.463 3°7.875 -999 -999 -999  
2002-08-01 10:07:29 51°25.664 3°7.912 -999 -999 -999  
2002-08-01 10:08:29 51°25.863 3°7.954 -999 -999 -999  
2002-08-01 10:09:29 51°26.051 3°8.057 -999 -999 -999  
2002-08-01 10:10:29 51°26.239 3°8.161 -999 -999 -999  
2002-08-01 10:11:29 51°26.429 3°8.262 -999 -999 -999  
2002-08-01 10:12:29 51°26.62 3°8.363 -999 -999 -999  
2002-08-01 10:13:29 51°26.812 3°8.468 -999 -999 -999  
2002-08-01 10:14:29 51°26.991 3°8.562 -999 -999 -999  
2002-08-01 10:15:29 51°27.132 3°8.625 -999 -999 -999  
2002-08-01 10:16:29 51°27.26 3°8.682 -999 -999 -999  
2002-08-01 10:17:29 51°27.385 3°8.736 -999 -999 -999  
2002-08-01 10:18:29 51°27.51 3°8.791 -999 -999 -999  
2002-08-01 10:19:29 51°27.635 3°8.845 -999 -999 -999  
2002-08-01 10:20:29 51°27.76 3°8.898 -999 -999 -999  
2002-08-01 10:21:29 51°27.885 3°8.952 -999 -999 -999  
2002-08-01 10:22:29 51°27.993 3°8.996 -999 -999 -999  
2002-08-01 10:23:29 51°28.092 3°9.04 -999 -999 -999  
2002-08-01 10:24:29 51°28.154 3°9.106 -999 -999 -999  
2002-08-01 10:25:29 51°28.181 3°9.157 -999 -999 -999  
2002-08-01 10:26:29 51°28.195 3°9.192 -999 -999 -999  
2002-08-01 10:27:29 51°28.201 3°9.19 -999 -999 -999  
2002-08-01 10:28:29 51°28.201 3°9.158 -999 -999 -999  
2002-08-01 10:29:29 51°28.203 3°9.131 -999 -999 -999  
2002-08-01 10:30:29 51°28.204 3°9.109 -999 -999 -999  
2002-08-01 10:31:29 51°28.206 3°9.086 -999 -999 -999  
2002-08-01 10:32:29 51°28.207 3°9.061 -999 -999 -999  
2002-08-01 10:33:29 51°28.211 3°9.024 -999 -999 -999  
2002-08-01 10:34:30 51°28.209 3°9.018 -999 -999 -999  
2002-08-01 10:35:29 51°28.188 3°9.039 -999 -999 -999  
2002-08-01 10:36:29 51°28.164 3°9.066 -999 -999 -999  
2002-08-01 10:37:29 51°28.14 3°9.095 -999 -999 -999  
2002-08-01 10:38:29 51°28.126 3°9.121 -999 -999 -999  
2002-08-01 10:39:29 51°28.125 3°9.148 -999 -999 -999  
2002-08-01 10:40:29 51°28.139 3°9.172 -999 -999 -999  
2002-08-01 10:41:28 51°28.158 3°9.185 -999 -999 -999  
2002-08-01 10:42:29 51°28.176 3°9.193 -999 -999 -999  
2002-08-01 10:43:29 51°28.194 3°9.197 -999 -999 -999  
2002-08-01 10:44:29 51°28.21 3°9.197 -999 -999 -999  
2002-08-01 10:45:30 51°28.23 3°9.189 -999 -999 -999  
2002-08-01 10:46:29 51°28.262 3°9.139 -999 -999 -999  
2002-08-01 10:47:29 51°28.247 3°9.039 -999 -999 -999  
2002-08-01 10:48:29 51°28.194 3°9.024 -999 -999 -999  
2002-08-01 10:49:29 51°28.161 3°9.035 -999 -999 -999  
2002-08-01 10:50:29 51°28.14 3°9.047 -999 -999 -999  
2002-08-01 10:51:29 51°28.127 3°9.062 -999 -999 -999  
2002-08-01 10:52:29 51°28.121 3°9.08 -999 -999 -999  
2002-08-01 10:53:29 51°28.122 3°9.098 -999 -999 -999  
2002-08-01 10:54:29 51°28.129 3°9.112 -999 -999 -999  
2002-08-01 10:55:29 51°28.14 3°9.121 -999 -999 -999  
2002-08-01 10:56:29 51°28.153 3°9.129 -999 -999 -999  
2002-08-01 10:57:29 51°28.166 3°9.133 -999 -999 -999  
2002-08-01 10:58:29 51°28.178 3°9.136 -999 -999 -999  
2002-08-01 10:59:29 51°28.189 3°9.135 -999 -999 -999  
2002-08-01 11:00:29 51°28.198 3°9.132 -999 -999 -999  
2002-08-01 11:01:29 51°28.205 3°9.127 -999 -999 -999  
2002-08-01 11:02:29 51°28.209 3°9.121 -999 -999 -999  
2002-08-01 11:03:29 51°28.209 3°9.112 -999 -999 -999  
2002-08-01 11:04:28 51°28.21 3°9.105 -999 -999 -999  
2002-08-01 11:05:29 51°28.221 3°9.121 -999 -999 -999  
2002-08-01 11:06:29 51°28.219 3°9.161 -999 -999 -999  
2002-08-01 11:07:29 51°28.193 3°9.19 -999 -999 -999  
2002-08-01 11:08:29 51°28.159 3°9.193 -999 -999 -999  
2002-08-01 11:09:29 51°28.128 3°9.171 -999 -999 -999  
2002-08-01 11:10:29 51°28.104 3°9.134 -999 -999 -999  
2002-08-01 11:11:29 51°28.089 3°9.078 -999 -999 -999  
2002-08-01 11:12:29 51°28.089 3°9.021 -999 -999 -999  
2002-08-01 11:13:29 51°28.1 3°8.973 -999 -999 -999  
2002-08-01 11:14:29 51°28.122 3°8.943 -999 -999 -999  
2002-08-01 11:15:29 51°28.159 3°8.926 -999 -999 -999  
2002-08-01 11:16:29 51°28.227 3°8.779 -999 -999 -999  
2002-08-01 11:17:29 51°28.265 3°8.428 -999 -999 -999  
2002-08-01 11:18:29 51°28.283 3°8.043 -999 -999 -999  
2002-08-01 11:19:29 51°28.305 3°7.655 -999 -999 -999  
2002-08-01 11:20:29 51°28.333 3°7.266 -999 -999 -999  
2002-08-01 11:21:29 51°28.363 3°6.878 -999 -999 -999  
2002-08-01 11:22:29 51°28.398 3°6.488 -999 -999 -999  
2002-08-01 11:23:29 51°28.429 3°6.098 -999 -999 -999  
2002-08-01 11:24:29 51°28.458 3°5.706 -999 -999 -999  
2002-08-01 11:25:29 51°28.487 3°5.314 -999 -999 -999  
2002-08-01 11:26:29 51°28.516 3°4.92 -999 -999 -999  
2002-08-01 11:27:29 51°28.546 3°4.525 -999 -999 -999  
2002-08-01 11:28:29 51°28.57 3°4.192 -999 -999 -999  
2002-08-01 11:29:29 51°28.56 3°3.992 -999 -999 -999  
2002-08-01 11:30:29 51°28.557 3°3.859 -999 -999 -999  
2002-08-01 11:31:29 51°28.579 3°3.775 -999 -999 -999  
2002-08-01 11:32:29 51°28.606 3°3.722 -999 -999 -999  
2002-08-01 11:33:29 51°28.632 3°3.701 -999 -999 -999  
2002-08-01 11:34:29 51°28.648 3°3.706 -999 -999 -999  
2002-08-01 11:35:29 51°28.655 3°3.718 -999 -999 -999  
2002-08-01 11:36:29 51°28.659 3°3.727 -999 -999 -999  
2002-08-01 11:37:29 51°28.664 3°3.731 -999 -999 -999  
2002-08-01 11:38:29 51°28.671 3°3.731 -999 -999 -999  
2002-08-01 11:39:29 51°28.681 3°3.726 -999 -999 -999  
2002-08-01 11:40:29 51°28.692 3°3.716 -999 -999 -999  
2002-08-01 11:41:29 51°28.701 3°3.701 -999 -999 -999  
2002-08-01 11:42:29 51°28.706 3°3.682 -999 -999 -999  
2002-08-01 11:43:29 51°28.706 3°3.663 -999 -999 -999  
2002-08-01 11:44:29 51°28.706 3°3.644 -999 -999 -999  
2002-08-01 11:45:29 51°28.701 3°3.623 -999 -999 -999  
2002-08-01 11:46:29 51°28.704 3°3.61 -999 -999 -999  
2002-08-01 11:47:29 51°28.712 3°3.649 -999 -999 -999  
2002-08-01 11:48:29 51°28.706 3°3.676 -999 -999 -999  
2002-08-01 11:49:29 51°28.699 3°3.7 -999 -999 -999  
2002-08-01 11:50:29 51°28.692 3°3.719 -999 -999 -999  
2002-08-01 11:51:29 51°28.684 3°3.734 -999 -999 -999  
2002-08-01 11:52:29 51°28.677 3°3.744 -999 -999 -999  
2002-08-01 11:53:29 51°28.669 3°3.752 -999 -999 -999  
2002-08-01 11:54:29 51°28.662 3°3.759 -999 -999 -999  
2002-08-01 11:55:29 51°28.654 3°3.763 -999 -999 -999  
2002-08-01 11:56:29 51°28.645 3°3.766 -999 -999 -999  
2002-08-01 11:57:29 51°28.639 3°3.769 -999 -999 -999  
2002-08-01 11:58:29 51°28.64 3°3.771 -999 -999 -999  
2002-08-01 11:59:29 51°28.647 3°3.771 -999 -999 -999  
2002-08-01 12:00:29 51°28.659 3°3.767 -999 -999 -999  
2002-08-01 12:01:29 51°28.674 3°3.756 -999 -999 -999  
2002-08-01 12:02:29 51°28.69 3°3.734 -999 -999 -999  
2002-08-01 12:03:29 51°28.704 3°3.704 -999 -999 -999  
2002-08-01 12:04:29 51°28.718 3°3.674 -999 -999 -999  
2002-08-01 12:05:28 51°28.734 3°3.653 -999 -999 -999  
2002-08-01 12:06:29 51°28.747 3°3.647 -999 -999 -999  
2002-08-01 12:07:29 51°28.753 3°3.656 -999 -999 -999  
2002-08-01 12:08:29 51°28.749 3°3.672 -999 -999 -999  
2002-08-01 12:09:29 51°28.734 3°3.694 -999 -999 -999  
2002-08-01 12:10:29 51°28.709 3°3.711 -999 -999 -999  
2002-08-01 12:11:29 51°28.675 3°3.717 -999 -999 -999  
2002-08-01 12:12:29 51°28.636 3°3.711 -999 -999 -999  
2002-08-01 12:13:29 51°28.568 3°3.651 -999 -999 -999  
2002-08-01 12:14:29 51°28.491 3°3.494 -999 -999 -999  
2002-08-01 12:15:29 51°28.365 3°3.249 -999 -999 -999  
2002-08-01 12:16:29 51°28.208 3°2.934 -999 -999 -999  
2002-08-01 12:17:29 51°28.048 3°2.617 -999 -999 -999  
2002-08-01 12:18:29 51°27.891 3°2.294 -999 -999 -999  
2002-08-01 12:19:29 51°27.732 3°1.97 -999 -999 -999  
2002-08-01 12:20:29 51°27.57 3°1.649 -999 -999 -999  
2002-08-01 12:21:29 51°27.405 3°1.328 -999 -999 -999  
2002-08-01 12:22:29 51°27.236 3°1.008 -999 -999 -999  
2002-08-01 12:23:29 51°27.063 3°0.694 -999 -999 -999  
2002-08-01 12:24:29 51°26.892 3°0.379 -999 -999 -999  
2002-08-01 12:25:29 51°26.72 3°0.064 -999 -999 -999  
2002-08-01 12:26:29 51°26.544 2°59.754 -999 -999 -999  
2002-08-01 12:27:29 51°26.368 2°59.442 -999 -999 -999  
2002-08-01 12:28:29 51°26.197 2°59.137 -999 -999 -999  
2002-08-01 12:29:29 51°26.027 2°58.834 -999 -999 -999  
2002-08-01 12:30:29 51°25.857 2°58.529 -999 -999 -999  
2002-08-01 12:31:29 51°25.687 2°58.222 -999 -999 -999  
2002-08-01 12:32:29 51°25.519 2°57.915 -999 -999 -999  
2002-08-01 12:33:29 51°25.353 2°57.607 -999 -999 -999  
2002-08-01 12:34:29 51°25.187 2°57.302 -999 -999 -999  
2002-08-01 12:35:29 51°25.023 2°56.993 -999 -999 -999  
2002-08-01 12:36:29 51°24.857 2°56.683 -999 -999 -999  
2002-08-01 12:37:29 51°24.69 2°56.375 -999 -999 -999  
2002-08-01 12:38:29 51°24.521 2°56.066 -999 -999 -999  
2002-08-01 12:39:29 51°24.352 2°55.756 -999 -999 -999  
2002-08-01 12:40:29 51°24.182 2°55.447 -999 -999 -999  
2002-08-01 12:41:29 51°24.012 2°55.136 -999 -999 -999  
2002-08-01 12:42:29 51°23.838 2°54.827 -999 -999 -999  
2002-08-01 12:43:29 51°23.666 2°54.514 -999 -999 -999  
2002-08-01 12:44:29 51°23.494 2°54.201 -999 -999 -999  
2002-08-01 12:45:29 51°23.322 2°53.888 -999 -999 -999  
2002-08-01 12:46:29 51°23.151 2°53.576 -999 -999 -999  
2002-08-01 12:47:29 51°22.98 2°53.265 -999 -999 -999  
2002-08-01 12:48:29 51°22.814 2°52.956 -999 -999 -999  
2002-08-01 12:49:29 51°22.646 2°52.647 -999 -999 -999  
2002-08-01 12:50:29 51°22.477 2°52.339 -999 -999 -999  
2002-08-01 12:51:29 51°22.309 2°52.028 -999 -999 -999  
2002-08-01 12:52:29 51°22.146 2°51.714 -999 -999 -999  
2002-08-01 12:53:29 51°21.979 2°51.403 -999 -999 -999  
2002-08-01 12:54:29 51°21.814 2°51.088 -999 -999 -999  
2002-08-01 12:55:29 51°21.648 2°50.775 -999 -999 -999  
2002-08-01 12:56:29 51°21.483 2°50.467 -999 -999 -999  
2002-08-01 12:57:29 51°21.318 2°50.159 -999 -999 -999  
2002-08-01 12:58:29 51°21.153 2°49.849 -999 -999 -999  
2002-08-01 12:59:29 51°20.987 2°49.538 -999 -999 -999  
2002-08-01 13:00:29 51°20.82 2°49.229 -999 -999 -999  
2002-08-01 13:01:29 51°20.655 2°48.916 -999 -999 -999  
2002-08-01 13:02:29 51°20.482 2°48.612 -999 -999 -999  
2002-08-01 13:03:29 51°20.298 2°48.325 -999 -999 -999  
2002-08-01 13:04:29 51°20.135 2°48.061 -999 -999 -999  
2002-08-01 13:05:29 51°20.034 2°47.92 -999 -999 -999  
2002-08-01 13:06:29 51°19.954 2°47.835 -999 -999 -999  
2002-08-01 13:07:29 51°19.908 2°47.767 -999 -999 -999  
2002-08-01 13:08:29 51°19.905 2°47.775 -999 -999 -999  
2002-08-01 13:09:29 51°19.903 2°47.772 -999 -999 -999  
2002-08-01 13:10:29 51°19.899 2°47.761 -999 -999 -999  
2002-08-01 13:11:29 51°19.896 2°47.745 -999 -999 -999  
2002-08-01 13:12:29 51°19.893 2°47.725 -999 -999 -999  
2002-08-01 13:13:29 51°19.89 2°47.701 -999 -999 -999  
2002-08-01 13:14:29 51°19.884 2°47.674 -999 -999 -999  
2002-08-01 13:15:29 51°19.865 2°47.66 -999 -999 -999  
2002-08-01 13:16:29 51°19.848 2°47.662 -999 -999 -999  
2002-08-01 13:17:29 51°19.845 2°47.67 -999 -999 -999  
2002-08-01 13:18:29 51°19.854 2°47.681 -999 -999 -999  
2002-08-01 13:19:29 51°19.87 2°47.695 -999 -999 -999  
2002-08-01 13:20:29 51°19.885 2°47.715 -999 -999 -999  
2002-08-01 13:21:29 51°19.889 2°47.739 -999 -999 -999  
2002-08-01 13:22:29 51°19.884 2°47.763 -999 -999 -999  
2002-08-01 13:23:29 51°19.872 2°47.785 -999 -999 -999  
2002-08-01 13:24:29 51°19.868 2°47.799 -999 -999 -999  
2002-08-01 13:25:29 51°19.871 2°47.803 -999 -999 -999  
2002-08-01 13:26:29 51°19.876 2°47.799 -999 -999 -999  
2002-08-01 13:27:29 51°19.885 2°47.79 -999 -999 -999  
2002-08-01 13:28:29 51°19.894 2°47.78 -999 -999 -999  
2002-08-01 13:29:29 51°19.903 2°47.771 -999 -999 -999  
2002-08-01 13:30:29 51°19.912 2°47.762 -999 -999 -999  
2002-08-01 13:31:29 51°19.921 2°47.753 -999 -999 -999  
2002-08-01 13:32:29 51°19.928 2°47.75 -999 -999 -999  
2002-08-01 13:33:29 51°19.93 2°47.753 -999 -999 -999  
2002-08-01 13:34:29 51°19.927 2°47.761 -999 -999 -999  
2002-08-01 13:35:29 51°19.922 2°47.77 -999 -999 -999  
2002-08-01 13:36:29 51°19.918 2°47.781 -999 -999 -999  
2002-08-01 13:37:29 51°19.913 2°47.796 -999 -999 -999  
2002-08-01 13:38:29 51°19.902 2°47.814 -999 -999 -999  
2002-08-01 13:39:29 51°19.886 2°47.832 -999 -999 -999  
2002-08-01 13:40:29 51°19.865 2°47.847 -999 -999 -999  
2002-08-01 13:41:29 51°19.838 2°47.859 -999 -999 -999  
2002-08-01 13:42:29 51°19.808 2°47.868 -999 -999 -999  
2002-08-01 13:43:29 51°19.773 2°47.87 -999 -999 -999  
2002-08-01 13:44:29 51°19.735 2°47.863 -999 -999 -999  
2002-08-01 13:45:29 51°19.658 2°47.889 -999 -999 -999  
2002-08-01 13:46:29 51°19.539 2°48.099 -999 -999 -999  
2002-08-01 13:47:29 51°19.394 2°48.373 -999 -999 -999  
2002-08-01 13:48:29 51°19.251 2°48.654 -999 -999 -999  
2002-08-01 13:49:29 51°19.107 2°48.936 -999 -999 -999  
2002-08-01 13:50:29 51°18.963 2°49.218 -999 -999 -999  
2002-08-01 13:51:29 51°18.816 2°49.502 -999 -999 -999  
2002-08-01 13:52:29 51°18.666 2°49.783 -999 -999 -999  
2002-08-01 13:53:29 51°18.513 2°50.064 -999 -999 -999  
2002-08-01 13:54:29 51°18.366 2°50.349 -999 -999 -999  
2002-08-01 13:55:29 51°18.22 2°50.635 -999 -999 -999  
2002-08-01 13:56:29 51°18.069 2°50.915 -999 -999 -999  
2002-08-01 13:57:29 51°17.918 2°51.195 -999 -999 -999  
2002-08-01 13:58:29 51°17.768 2°51.477 -999 -999 -999  
2002-08-01 13:59:29 51°17.607 2°51.747 -999 -999 -999  
2002-08-01 14:00:29 51°17.42 2°51.983 -999 -999 -999  
2002-08-01 14:01:29 51°17.208 2°52.163 -999 -999 -999  
2002-08-01 14:02:29 51°16.991 2°52.336 -999 -999 -999  
2002-08-01 14:03:29 51°16.775 2°52.512 -999 -999 -999  
2002-08-01 14:04:29 51°16.559 2°52.694 -999 -999 -999  
2002-08-01 14:05:29 51°16.341 2°52.871 -999 -999 -999  
2002-08-01 14:06:29 51°16.126 2°53.045 -999 -999 -999  
2002-08-01 14:07:29 51°15.926 2°53.207 -999 -999 -999  
2002-08-01 14:08:29 51°15.786 2°53.321 -999 -999 -999  
2002-08-01 14:09:29 51°15.647 2°53.451 -999 -999 -999  
2002-08-01 14:10:29 51°15.469 2°53.656 -999 -999 -999  
2002-08-01 14:11:29 51°15.294 2°53.88 -999 -999 -999  
2002-08-01 14:12:29 51°15.12 2°54.104 -999 -999 -999  
2002-08-01 14:13:29 51°14.945 2°54.328 -999 -999 -999  
2002-08-01 14:14:29 51°14.765 2°54.557 -999 -999 -999  
2002-08-01 14:15:29 51°14.591 2°54.789 -999 -999 -999  
2002-08-01 14:16:29 51°14.429 2°55.003 -999 -999 -999  
2002-08-01 14:17:29 51°14.291 2°55.224 -999 -999 -999  
2002-08-01 14:18:29 51°14.18 2°55.37 -999 -999 -999  
2002-08-01 14:19:29 51°14.073 2°55.452 -999 -999 -999  
2002-08-01 14:20:29 51°13.976 2°55.523 -999 -999 -999  
2002-08-01 14:21:29 51°13.886 2°55.591 -999 -999 -999  
2002-08-01 14:22:29 51°13.802 2°55.654 -999 -999 -999  
2002-08-01 14:23:29 51°13.742 2°55.723 -999 -999 -999